"Time","401224A","401224A"
"and",100.00,201.00
"Date","Water Level (m)","Volume (GL)"
"","Mean","Mean"
09:00:00 08/11/1977,338.821,3.267
09:00:00 09/11/1977,339.725,3.887
09:00:00 10/11/1977,340.525,4.513
09:00:00 11/11/1977,341.365,5.264
09:00:00 12/11/1977,342.565,6.508
09:00:00 13/11/1977,343.82,7.996
09:00:00 14/11/1977,344.695,9.156
09:00:00 15/11/1977,345.375,10.129
09:00:00 16/11/1977,345.95,11.001
09:00:00 17/11/1977,346.405,11.724
09:00:00 18/11/1977,346.8,12.376
09:00:00 19/11/1977,347.18,13.027
09:00:00 20/11/1977,347.53,13.646
09:00:00 21/11/1977,347.845,14.221
09:00:00 22/11/1977,348.2,14.888
09:00:00 23/11/1977,348.49,15.446
09:00:00 24/11/1977,348.69,15.84
09:00:00 25/11/1977,348.9,16.26
09:00:00 26/11/1977,349.125,16.72
09:00:00 27/11/1977,349.35,17.187
09:00:00 28/11/1977,349.525,17.556
09:00:00 29/11/1977,349.7,17.929
09:00:00 30/11/1977,349.925,18.415
09:00:00 01/12/1977,350.25,19.13
09:00:00 02/12/1977,350.625,19.971
09:00:00 03/12/1977,350.9,20.6
09:00:00 04/12/1977,351.09,21.042
09:00:00 05/12/1977,351.315,21.571
09:00:00 06/12/1977,351.475,21.951
09:00:00 07/12/1977,351.56,22.155
09:00:00 08/12/1977,351.685,22.457
09:00:00 09/12/1977,351.815,22.773
09:00:00 10/12/1977,351.94,23.079
09:00:00 11/12/1977,352.065,23.387
09:00:00 12/12/1977,352.19,23.698
09:00:00 13/12/1977,352.275,23.911
09:00:00 14/12/1977,352.35,24.1
09:00:00 15/12/1977,352.44,24.327
09:00:00 16/12/1977,352.515,24.518
09:00:00 17/12/1977,352.575,24.671
09:00:00 18/12/1977,352.63,24.812
09:00:00 19/12/1977,352.68,24.94
09:00:00 20/12/1977,352.725,25.056
09:00:00 21/12/1977,352.775,25.185
09:00:00 22/12/1977,352.825,25.315
09:00:00 23/12/1977,352.875,25.445
09:00:00 24/12/1977,352.94,25.615
09:00:00 25/12/1977,353.015,25.811
09:00:00 26/12/1977,353.085,25.995
09:00:00 27/12/1977,353.155,26.181
09:00:00 28/12/1977,353.22,26.353
09:00:00 29/12/1977,353.285,26.527
09:00:00 30/12/1977,353.36,26.728
09:00:00 31/12/1977,353.425,26.902
09:00:00 01/01/1978,353.5,27.104
09:00:00 02/01/1978,353.575,27.308
09:00:00 03/01/1978,353.625,27.444
09:00:00 04/01/1978,353.675,27.581
09:00:00 05/01/1978,353.725,27.717
09:00:00 06/01/1978,353.775,27.854
09:00:00 07/01/1978,353.825,27.992
09:00:00 08/01/1978,353.925,28.269
09:00:00 09/01/1978,354.075,28.687
09:00:00 10/01/1978,354.175,28.968
09:00:00 11/01/1978,354.225,29.109
09:00:00 12/01/1978,354.275,29.25
09:00:00 13/01/1978,354.325,29.392
09:00:00 14/01/1978,354.36,29.491
09:00:00 15/01/1978,354.385,29.562
09:00:00 16/01/1978,354.4,29.605
09:00:00 17/01/1978,354.41,29.634
09:00:00 18/01/1978,354.43,29.691
09:00:00 19/01/1978,354.45,29.748
09:00:00 20/01/1978,354.47,29.805
09:00:00 21/01/1978,354.49,29.862
09:00:00 22/01/1978,354.5,29.891
09:00:00 23/01/1978,354.515,29.934
09:00:00 24/01/1978,354.56,30.064
09:00:00 25/01/1978,354.64,30.294
09:00:00 26/01/1978,354.71,30.497
09:00:00 27/01/1978,354.76,30.642
09:00:00 28/01/1978,354.81,30.788
09:00:00 29/01/1978,354.845,30.89
09:00:00 30/01/1978,354.875,30.978
09:00:00 31/01/1978,354.895,31.036
09:00:00 01/02/1978,355.015,31.39
09:00:00 02/02/1978,355.185,31.895
09:00:00 03/02/1978,355.27,32.149
09:00:00 04/02/1978,355.32,32.299
09:00:00 05/02/1978,355.36,32.419
09:00:00 06/02/1978,355.39,32.51
09:00:00 07/02/1978,355.41,32.57
09:00:00 08/02/1978,355.445,32.676
09:00:00 09/02/1978,355.47,32.751
09:00:00 10/02/1978,355.49,32.812
09:00:00 11/02/1978,355.545,32.979
09:00:00 12/02/1978,355.59,33.116
09:00:00 13/02/1978,355.6,33.146
09:00:00 14/02/1978,355.615,33.192
09:00:00 15/02/1978,355.64,33.268
09:00:00 16/02/1978,355.66,33.329
09:00:00 17/02/1978,355.68,33.391
09:00:00 18/02/1978,355.69,33.421
09:00:00 19/02/1978,355.69,33.421
09:00:00 20/02/1978,355.69,33.421
09:00:00 21/02/1978,355.695,33.437
09:00:00 22/02/1978,355.7,33.452
09:00:00 23/02/1978,355.69,33.421
09:00:00 24/02/1978,355.675,33.375
09:00:00 25/02/1978,355.665,33.345
09:00:00 26/02/1978,355.655,33.314
09:00:00 27/02/1978,355.645,33.283
09:00:00 28/02/1978,355.63,33.238
09:00:00 01/03/1978,355.77,33.668
09:00:00 02/03/1978,355.851,33.916
09:00:00 03/03/1978,355.691,33.423
09:00:00 04/03/1978,355.595,33.131
09:00:00 05/03/1978,355.585,33.1
09:00:00 06/03/1978,355.58,33.085
09:00:00 07/03/1978,355.575,33.07
09:00:00 08/03/1978,355.57,33.055
09:00:00 09/03/1978,355.57,33.055
09:00:00 10/03/1978,355.56,33.024
09:00:00 11/03/1978,355.545,32.979
09:00:00 12/03/1978,355.535,32.948
09:00:00 13/03/1978,355.525,32.918
09:00:00 14/03/1978,355.515,32.887
09:00:00 15/03/1978,355.52,32.903
09:00:00 16/03/1978,355.515,32.887
09:00:00 17/03/1978,355.525,32.918
09:00:00 18/03/1978,355.565,33.039
09:00:00 19/03/1978,355.595,33.131
09:00:00 20/03/1978,355.645,33.284
09:00:00 21/03/1978,355.745,33.591
09:00:00 22/03/1978,355.99,34.35
09:00:00 23/03/1978,356.335,35.435
09:00:00 24/03/1978,356.6,36.282
09:00:00 25/03/1978,356.8,36.93
09:00:00 26/03/1978,356.975,37.504
09:00:00 27/03/1978,357.075,37.833
09:00:00 28/03/1978,357.11,37.949
09:00:00 29/03/1978,357.175,38.165
09:00:00 30/03/1978,357.29,38.549
09:00:00 31/03/1978,357.5,39.256
09:00:00 01/04/1978,357.825,40.368
09:00:00 02/04/1978,358.16,41.536
09:00:00 03/04/1978,358.37,42.281
09:00:00 04/04/1978,358.86,44.064
09:00:00 05/04/1978,359.5,46.457
09:00:00 06/04/1978,359.825,47.709
09:00:00 07/04/1978,360.03,48.51
09:00:00 08/04/1978,360.17,49.062
09:00:00 09/04/1978,360.3,49.579
09:00:00 10/04/1978,360.435,50.12
09:00:00 11/04/1978,360.59,50.745
09:00:00 12/04/1978,360.74,51.354
09:00:00 13/04/1978,361.04,52.59
09:00:00 14/04/1978,361.39,54.051
09:00:00 15/04/1978,361.6,54.943
09:00:00 16/04/1978,361.785,55.735
09:00:00 17/04/1978,361.945,56.426
09:00:00 18/04/1978,362.075,56.992
09:00:00 19/04/1978,362.19,57.495
09:00:00 20/04/1978,362.3,57.979
09:00:00 21/04/1978,362.385,58.355
09:00:00 22/04/1978,362.47,58.733
09:00:00 23/04/1978,362.56,59.134
09:00:00 24/04/1978,362.64,59.492
09:00:00 25/04/1978,362.725,59.873
09:00:00 26/04/1978,362.825,60.324
09:00:00 27/04/1978,362.945,60.868
09:00:00 28/04/1978,363.09,61.529
09:00:00 29/04/1978,363.22,62.126
09:00:00 30/04/1978,363.32,62.588
09:00:00 01/05/1978,363.415,63.028
09:00:00 02/05/1978,363.49,63.376
09:00:00 03/05/1978,363.52,63.516
09:00:00 04/05/1978,363.605,63.914
09:00:00 05/05/1978,363.71,64.407
09:00:00 06/05/1978,363.775,64.714
09:00:00 07/05/1978,363.85,65.069
09:00:00 08/05/1978,363.905,65.33
09:00:00 09/05/1978,363.96,65.592
09:00:00 10/05/1978,364.04,65.974
09:00:00 11/05/1978,364.15,66.502
09:00:00 12/05/1978,364.315,67.299
09:00:00 13/05/1978,364.505,68.225
09:00:00 14/05/1978,364.65,68.937
09:00:00 15/05/1978,364.78,69.579
09:00:00 16/05/1978,364.9,70.175
09:00:00 17/05/1978,364.985,70.6
09:00:00 18/05/1978,365.085,71.101
09:00:00 19/05/1978,365.223,71.796
09:00:00 20/05/1978,365.561,73.519
09:00:00 21/05/1978,366.099,76.318
09:00:00 22/05/1978,366.606,79.015
09:00:00 23/05/1978,367.013,81.226
09:00:00 24/05/1978,367.309,82.858
09:00:00 25/05/1978,367.68,84.942
09:00:00 26/05/1978,368.055,87.079
09:00:00 27/05/1978,368.29,88.436
09:00:00 28/05/1978,368.475,89.515
09:00:00 29/05/1978,368.625,90.396
09:00:00 30/05/1978,368.825,91.582
09:00:00 31/05/1978,369.08,93.109
09:00:00 01/06/1978,369.38,94.93
09:00:00 02/06/1978,369.685,96.808
09:00:00 03/06/1978,369.98,98.65
09:00:00 04/06/1978,370.615,102.706
09:00:00 05/06/1978,371.535,108.768
09:00:00 06/06/1978,372.265,113.746
09:00:00 07/06/1978,372.785,117.392
09:00:00 08/06/1978,373.22,120.508
09:00:00 09/06/1978,373.605,123.321
09:00:00 10/06/1978,373.955,125.925
09:00:00 11/06/1978,374.295,128.501
09:00:00 12/06/1978,374.635,131.121
09:00:00 13/06/1978,374.925,133.391
09:00:00 14/06/1978,375.255,136.017
09:00:00 15/06/1978,375.98,141.941
09:00:00 16/06/1978,376.975,150.35
09:00:00 17/06/1978,377.77,157.313
09:00:00 18/06/1978,378.32,162.258
09:00:00 19/06/1978,378.9,167.589
09:00:00 20/06/1978,379.565,173.842
09:00:00 21/06/1978,380.115,179.126
09:00:00 22/06/1978,380.555,183.425
09:00:00 23/06/1978,380.895,186.787
09:00:00 24/06/1978,381.16,189.434
09:00:00 25/06/1978,381.44,192.256
09:00:00 26/06/1978,381.76,195.512
09:00:00 27/06/1978,382.07,198.696
09:00:00 28/06/1978,382.335,201.443
09:00:00 29/06/1978,382.575,203.95
09:00:00 30/06/1978,382.8,206.317
09:00:00 01/07/1978,383.02,208.647
09:00:00 02/07/1978,383.22,210.778
09:00:00 03/07/1978,383.43,213.03
09:00:00 04/07/1978,383.55,214.322
09:00:00 05/07/1978,383.685,215.783
09:00:00 06/07/1978,384.01,219.322
09:00:00 07/07/1978,384.51,224.836
09:00:00 08/07/1978,385.194,232.514
09:00:00 09/07/1978,,
09:00:00 10/07/1978,,
09:00:00 11/07/1978,386.826,251.476
09:00:00 12/07/1978,387.12,254.989
09:00:00 13/07/1978,387.345,257.696
09:00:00 14/07/1978,387.555,260.239
09:00:00 15/07/1978,387.75,262.612
09:00:00 16/07/1978,387.92,264.691
09:00:00 17/07/1978,388.075,266.595
09:00:00 18/07/1978,388.24,268.63
09:00:00 19/07/1978,388.405,270.674
09:00:00 20/07/1978,388.56,272.603
09:00:00 21/07/1978,388.71,274.475
09:00:00 22/07/1978,388.88,276.606
09:00:00 23/07/1978,389.735,287.491
09:00:00 24/07/1978,391.33,308.345
09:00:00 25/07/1978,392.67,326.423
09:00:00 26/07/1978,393.515,338.104
09:00:00 27/07/1978,394.105,346.382
09:00:00 28/07/1978,394.565,352.905
09:00:00 29/07/1978,394.965,358.623
09:00:00 30/07/1978,395.29,363.3
09:00:00 31/07/1978,395.565,367.279
09:00:00 01/08/1978,395.815,370.913
09:00:00 02/08/1978,396.05,374.344
09:00:00 03/08/1978,396.28,377.715
09:00:00 04/08/1978,396.48,380.656
09:00:00 05/08/1978,396.665,383.385
09:00:00 06/08/1978,396.845,386.048
09:00:00 07/08/1978,397.04,388.941
09:00:00 08/08/1978,397.375,393.934
09:00:00 09/08/1978,397.83,400.754
09:00:00 10/08/1978,398.3,407.845
09:00:00 11/08/1978,398.77,414.983
09:00:00 12/08/1978,399.17,421.093
09:00:00 13/08/1978,399.62,428.009
09:00:00 14/08/1978,400.125,435.821
09:00:00 15/08/1978,400.545,442.405
09:00:00 16/08/1978,400.965,449.307
09:00:00 17/08/1978,401.345,455.839
09:00:00 18/08/1978,401.635,460.956
09:00:00 19/08/1978,401.885,465.425
09:00:00 20/08/1978,402.125,469.757
09:00:00 21/08/1978,402.395,474.664
09:00:00 22/08/1978,402.603,478.477
09:00:00 23/08/1978,402.771,481.585
09:00:00 24/08/1978,402.998,485.795
09:00:00 25/08/1978,403.215,489.842
09:00:00 26/08/1978,403.415,493.594
09:00:00 27/08/1978,403.6,497.082
09:00:00 28/08/1978,403.745,499.826
09:00:00 29/08/1978,403.905,502.868
09:00:00 30/08/1978,404.07,506.016
09:00:00 31/08/1978,404.195,508.409
09:00:00 01/09/1978,404.315,510.714
09:00:00 02/09/1978,404.435,513.025
09:00:00 03/09/1978,404.56,515.44
09:00:00 04/09/1978,404.695,518.056
09:00:00 05/09/1978,404.855,521.168
09:00:00 06/09/1978,405.055,525.074
09:00:00 07/09/1978,405.25,528.9
09:00:00 08/09/1978,405.42,532.25
09:00:00 09/09/1978,405.58,535.415
09:00:00 10/09/1978,405.73,538.393
09:00:00 11/09/1978,405.86,540.983
09:00:00 12/09/1978,406.005,543.881
09:00:00 13/09/1978,406.225,548.296
09:00:00 14/09/1978,406.442,552.662
09:00:00 15/09/1978,406.707,558.038
09:00:00 16/09/1978,407.07,565.462
09:00:00 17/09/1978,407.34,571.013
09:00:00 18/09/1978,407.54,575.149
09:00:00 19/09/1978,407.78,580.137
09:00:00 20/09/1978,408.105,586.934
09:00:00 21/09/1978,408.475,594.729
09:00:00 22/09/1978,408.77,600.987
09:00:00 23/09/1978,409.03,606.539
09:00:00 24/09/1978,409.31,612.553
09:00:00 25/09/1978,409.575,618.28
09:00:00 26/09/1978,409.81,623.386
09:00:00 27/09/1978,410.075,629.177
09:00:00 28/09/1978,410.7,642.981
09:00:00 29/09/1978,411.52,661.355
09:00:00 30/09/1978,412.115,674.898
09:00:00 01/10/1978,412.57,685.376
09:00:00 02/10/1978,412.955,694.323
09:00:00 03/10/1978,413.29,702.169
09:00:00 04/10/1978,413.6,709.479
09:00:00 05/10/1978,413.885,716.241
09:00:00 06/10/1978,414.165,722.924
09:00:00 07/10/1978,414.37,727.84
09:00:00 08/10/1978,414.52,731.452
09:00:00 09/10/1978,414.7,735.8
09:00:00 10/10/1978,414.87,739.922
09:00:00 11/10/1978,415.025,743.692
09:00:00 12/10/1978,415.175,747.352
09:00:00 13/10/1978,415.325,751.023
09:00:00 14/10/1978,415.52,755.814
09:00:00 15/10/1978,415.735,761.118
09:00:00 16/10/1978,415.915,765.578
09:00:00 17/10/1978,416.075,769.555
09:00:00 18/10/1978,416.225,773.296
09:00:00 19/10/1978,416.375,777.047
09:00:00 20/10/1978,416.505,780.308
09:00:00 21/10/1978,416.625,783.326
09:00:00 22/10/1978,416.74,786.224
09:00:00 23/10/1978,416.84,788.75
09:00:00 24/10/1978,416.94,791.281
09:00:00 25/10/1978,417.03,793.564
09:00:00 26/10/1978,417.115,795.723
09:00:00 27/10/1978,417.2,797.886
09:00:00 28/10/1978,417.37,802.225
09:00:00 29/10/1978,417.6,808.116
09:00:00 30/10/1978,417.77,812.486
09:00:00 31/10/1978,417.885,815.452
09:00:00 01/11/1978,418.04,819.461
09:00:00 02/11/1978,418.225,824.26
09:00:00 03/11/1978,418.39,828.555
09:00:00 04/11/1978,418.53,832.209
09:00:00 05/11/1978,418.64,835.088
09:00:00 06/11/1978,418.77,838.497
09:00:00 07/11/1978,418.91,842.179
09:00:00 08/11/1978,419.065,846.266
09:00:00 09/11/1978,419.255,851.293
09:00:00 10/11/1978,419.415,855.539
09:00:00 11/11/1978,419.535,858.732
09:00:00 12/11/1978,419.74,864.205
09:00:00 13/11/1978,420.03,871.983
09:00:00 14/11/1978,420.29,878.992
09:00:00 15/11/1978,420.485,884.271
09:00:00 16/11/1978,420.645,888.618
09:00:00 17/11/1978,420.78,892.296
09:00:00 18/11/1978,420.9,895.574
09:00:00 19/11/1978,421.02,898.86
09:00:00 20/11/1978,421.18,903.253
09:00:00 21/11/1978,421.35,907.935
09:00:00 22/11/1978,421.48,911.525
09:00:00 23/11/1978,421.595,914.709
09:00:00 24/11/1978,421.7,917.621
09:00:00 25/11/1978,421.795,920.261
09:00:00 26/11/1978,421.88,922.628
09:00:00 27/11/1978,421.97,925.137
09:00:00 28/11/1978,422.07,927.929
09:00:00 29/11/1978,422.16,930.447
09:00:00 30/11/1978,422.29,934.094
09:00:00 01/12/1978,422.475,939.296
09:00:00 02/12/1978,422.635,943.811
09:00:00 03/12/1978,422.75,947.064
09:00:00 04/12/1978,422.85,949.898
09:00:00 05/12/1978,422.965,953.164
09:00:00 06/12/1978,423.085,956.58
09:00:00 07/12/1978,423.185,959.431
09:00:00 08/12/1978,423.27,961.859
09:00:00 09/12/1978,423.355,964.291
09:00:00 10/12/1978,423.43,966.44
09:00:00 11/12/1978,423.495,968.305
09:00:00 12/12/1978,423.57,970.459
09:00:00 13/12/1978,423.66,973.048
09:00:00 14/12/1978,423.78,976.506
09:00:00 15/12/1978,423.935,980.984
09:00:00 16/12/1978,424.085,985.329
09:00:00 17/12/1978,424.215,989.104
09:00:00 18/12/1978,424.335,992.596
09:00:00 19/12/1978,424.445,995.803
09:00:00 20/12/1978,424.55,998.871
09:00:00 21/12/1978,424.635,1001.357
09:00:00 22/12/1978,424.71,1003.554
09:00:00 23/12/1978,424.784,1005.711
09:00:00 24/12/1978,424.871,1008.267
09:00:00 25/12/1978,424.967,1011.091
09:00:00 26/12/1978,425.045,1013.39
09:00:00 27/12/1978,425.118,1015.558
09:00:00 28/12/1978,425.193,1017.774
09:00:00 29/12/1978,425.265,1019.904
09:00:00 30/12/1978,425.34,1022.126
09:00:00 31/12/1978,425.4,1023.905
09:00:00 01/01/1979,425.44,1025.092
09:00:00 02/01/1979,425.48,1026.28
09:00:00 03/01/1979,425.52,1027.469
09:00:00 04/01/1979,425.55,1028.361
09:00:00 05/01/1979,425.58,1029.254
09:00:00 06/01/1979,425.615,1030.296
09:00:00 07/01/1979,425.645,1031.189
09:00:00 08/01/1979,425.68,1032.232
09:00:00 09/01/1979,425.71,1033.126
09:00:00 10/01/1979,425.733,1033.798
09:00:00 11/01/1979,425.763,1034.693
09:00:00 12/01/1979,425.78,1035.216
09:00:00 13/01/1979,425.79,1035.514
09:00:00 14/01/1979,425.815,1036.261
09:00:00 15/01/1979,425.835,1036.859
09:00:00 16/01/1979,425.85,1037.307
09:00:00 17/01/1979,425.87,1037.905
09:00:00 18/01/1979,425.89,1038.504
09:00:00 19/01/1979,425.905,1038.953
09:00:00 20/01/1979,425.92,1039.402
09:00:00 21/01/1979,425.94,1040.0
09:00:00 22/01/1979,425.965,1040.749
09:00:00 23/01/1979,425.99,1041.498
09:00:00 24/01/1979,426.01,1042.098
09:00:00 25/01/1979,426.02,1042.398
09:00:00 26/01/1979,426.025,1042.547
09:00:00 27/01/1979,426.03,1042.697
09:00:00 28/01/1979,426.035,1042.847
09:00:00 29/01/1979,426.045,1043.147
09:00:00 30/01/1979,426.055,1043.447
09:00:00 31/01/1979,426.07,1043.897
09:00:00 01/02/1979,426.085,1044.348
09:00:00 02/02/1979,426.095,1044.648
09:00:00 03/02/1979,426.1,1044.798
09:00:00 04/02/1979,426.1,1044.798
09:00:00 05/02/1979,426.1,1044.798
09:00:00 06/02/1979,426.1,1044.798
09:00:00 07/02/1979,426.1,1044.798
09:00:00 08/02/1979,426.1,1044.798
09:00:00 09/02/1979,426.1,1044.798
09:00:00 10/02/1979,426.105,1044.948
09:00:00 11/02/1979,426.115,1045.248
09:00:00 12/02/1979,426.12,1045.399
09:00:00 13/02/1979,426.12,1045.399
09:00:00 14/02/1979,426.125,1045.549
09:00:00 15/02/1979,426.13,1045.699
09:00:00 16/02/1979,426.128,1045.624
09:00:00 17/02/1979,426.125,1045.549
09:00:00 18/02/1979,426.125,1045.549
09:00:00 19/02/1979,426.138,1045.924
09:00:00 20/02/1979,426.15,1046.3
09:00:00 21/02/1979,426.145,1046.15
09:00:00 22/02/1979,426.14,1045.999
09:00:00 23/02/1979,426.145,1046.15
09:00:00 24/02/1979,426.155,1046.45
09:00:00 25/02/1979,426.16,1046.6
09:00:00 26/02/1979,426.16,1046.6
09:00:00 27/02/1979,426.16,1046.6
09:00:00 28/02/1979,426.16,1046.6
09:00:00 01/03/1979,426.16,1046.6
09:00:00 02/03/1979,426.16,1046.6
09:00:00 03/03/1979,426.17,1046.901
09:00:00 04/03/1979,426.19,1047.502
09:00:00 05/03/1979,426.19,1047.502
09:00:00 06/03/1979,426.18,1047.202
09:00:00 07/03/1979,426.185,1047.352
09:00:00 08/03/1979,426.195,1047.653
09:00:00 09/03/1979,426.2,1047.803
09:00:00 10/03/1979,426.2,1047.803
09:00:00 11/03/1979,426.2,1047.803
09:00:00 12/03/1979,426.2,1047.803
09:00:00 13/03/1979,426.2,1047.803
09:00:00 14/03/1979,426.22,1048.405
09:00:00 15/03/1979,426.245,1049.157
09:00:00 16/03/1979,426.255,1049.458
09:00:00 17/03/1979,426.265,1049.76
09:00:00 18/03/1979,426.28,1050.211
09:00:00 19/03/1979,426.29,1050.513
09:00:00 20/03/1979,426.3,1050.814
09:00:00 21/03/1979,426.315,1051.266
09:00:00 22/03/1979,426.323,1051.492
09:00:00 23/03/1979,426.328,1051.643
09:00:00 24/03/1979,426.33,1051.718
09:00:00 25/03/1979,426.33,1051.718
09:00:00 26/03/1979,426.33,1051.718
09:00:00 27/03/1979,426.335,1051.869
09:00:00 28/03/1979,426.34,1052.019
09:00:00 29/03/1979,426.345,1052.17
09:00:00 30/03/1979,426.35,1052.321
09:00:00 31/03/1979,426.35,1052.321
09:00:00 01/04/1979,426.365,1052.773
09:00:00 02/04/1979,426.39,1053.527
09:00:00 03/04/1979,426.41,1054.131
09:00:00 04/04/1979,426.43,1054.735
09:00:00 05/04/1979,426.46,1055.641
09:00:00 06/04/1979,426.485,1056.396
09:00:00 07/04/1979,426.495,1056.699
09:00:00 08/04/1979,426.505,1057.001
09:00:00 09/04/1979,426.515,1057.304
09:00:00 10/04/1979,426.52,1057.455
09:00:00 11/04/1979,426.52,1057.455
09:00:00 12/04/1979,426.525,1057.606
09:00:00 13/04/1979,426.53,1057.757
09:00:00 14/04/1979,426.53,1057.757
09:00:00 15/04/1979,426.535,1057.908
09:00:00 16/04/1979,426.54,1058.06
09:00:00 17/04/1979,426.54,1058.06
09:00:00 18/04/1979,426.555,1058.514
09:00:00 19/04/1979,426.58,1059.27
09:00:00 20/04/1979,426.605,1060.027
09:00:00 21/04/1979,426.63,1060.785
09:00:00 22/04/1979,426.645,1061.239
09:00:00 23/04/1979,426.655,1061.542
09:00:00 24/04/1979,426.67,1061.997
09:00:00 25/04/1979,426.69,1062.604
09:00:00 26/04/1979,426.7,1062.907
09:00:00 27/04/1979,426.703,1062.983
09:00:00 28/04/1979,426.708,1063.135
09:00:00 29/04/1979,426.71,1063.21
09:00:00 30/04/1979,426.715,1063.362
09:00:00 01/05/1979,426.725,1063.665
09:00:00 02/05/1979,426.735,1063.969
09:00:00 03/05/1979,426.743,1064.197
09:00:00 04/05/1979,426.753,1064.5
09:00:00 05/05/1979,426.763,1064.804
09:00:00 06/05/1979,426.769,1065.001
09:00:00 07/05/1979,426.777,1065.229
09:00:00 08/05/1979,426.785,1065.487
09:00:00 09/05/1979,426.795,1065.791
09:00:00 10/05/1979,426.803,1066.019
09:00:00 11/05/1979,426.808,1066.171
09:00:00 12/05/1979,426.818,1066.475
09:00:00 13/05/1979,426.83,1066.855
09:00:00 14/05/1979,426.84,1067.159
09:00:00 15/05/1979,426.848,1067.387
09:00:00 16/05/1979,426.853,1067.539
09:00:00 17/05/1979,426.863,1067.843
09:00:00 18/05/1979,426.875,1068.223
09:00:00 19/05/1979,426.885,1068.527
09:00:00 20/05/1979,426.893,1068.756
09:00:00 21/05/1979,426.898,1068.908
09:00:00 22/05/1979,426.908,1069.212
09:00:00 23/05/1979,426.918,1069.517
09:00:00 24/05/1979,426.923,1069.669
09:00:00 25/05/1979,426.933,1069.974
09:00:00 26/05/1979,426.943,1070.278
09:00:00 27/05/1979,426.963,1070.888
09:00:00 28/05/1979,426.99,1071.726
09:00:00 29/05/1979,427.025,1072.793
09:00:00 30/05/1979,427.065,1074.014
09:00:00 31/05/1979,427.09,1074.777
09:00:00 01/06/1979,427.105,1075.235
09:00:00 02/06/1979,427.115,1075.54
09:00:00 03/06/1979,427.124,1075.8
09:00:00 04/06/1979,427.131,1076.029
09:00:00 05/06/1979,427.145,1076.457
09:00:00 06/06/1979,427.16,1076.916
09:00:00 07/06/1979,427.173,1077.298
09:00:00 08/06/1979,427.185,1077.68
09:00:00 09/06/1979,427.208,1078.368
09:00:00 10/06/1979,427.235,1079.21
09:00:00 11/06/1979,427.255,1079.822
09:00:00 12/06/1979,427.278,1080.512
09:00:00 13/06/1979,427.305,1081.354
09:00:00 14/06/1979,427.333,1082.197
09:00:00 15/06/1979,427.368,1083.271
09:00:00 16/06/1979,427.398,1084.191
09:00:00 17/06/1979,427.413,1084.652
09:00:00 18/06/1979,427.428,1085.112
09:00:00 19/06/1979,427.443,1085.573
09:00:00 20/06/1979,427.463,1086.187
09:00:00 21/06/1979,427.488,1086.956
09:00:00 22/06/1979,427.51,1087.647
09:00:00 23/06/1979,427.525,1088.109
09:00:00 24/06/1979,427.538,1088.493
09:00:00 25/06/1979,427.553,1088.955
09:00:00 26/06/1979,427.57,1089.493
09:00:00 27/06/1979,427.59,1090.109
09:00:00 28/06/1979,427.618,1090.956
09:00:00 29/06/1979,427.658,1092.189
09:00:00 30/06/1979,427.7,1093.5
09:00:00 01/07/1979,427.739,1094.703
09:00:00 02/07/1979,427.777,1095.861
09:00:00 03/07/1979,427.818,1097.128
09:00:00 04/07/1979,427.868,1098.674
09:00:00 05/07/1979,427.913,1100.067
09:00:00 06/07/1979,427.948,1101.151
09:00:00 07/07/1979,427.983,1102.235
09:00:00 08/07/1979,428.01,1103.088
09:00:00 09/07/1979,428.03,1103.708
09:00:00 10/07/1979,428.055,1104.484
09:00:00 11/07/1979,428.085,1105.415
09:00:00 12/07/1979,428.11,1106.192
09:00:00 13/07/1979,428.133,1106.891
09:00:00 14/07/1979,428.163,1107.823
09:00:00 15/07/1979,428.192,1108.726
09:00:00 16/07/1979,428.214,1109.426
09:00:00 17/07/1979,428.238,1110.157
09:00:00 18/07/1979,428.265,1111.013
09:00:00 19/07/1979,428.295,1111.948
09:00:00 20/07/1979,428.328,1112.961
09:00:00 21/07/1979,428.363,1114.053
09:00:00 22/07/1979,428.394,1115.036
09:00:00 23/07/1979,428.422,1115.894
09:00:00 24/07/1979,428.463,1117.175
09:00:00 25/07/1979,428.503,1118.425
09:00:00 26/07/1979,428.53,1119.285
09:00:00 27/07/1979,428.553,1119.99
09:00:00 28/07/1979,428.575,1120.694
09:00:00 29/07/1979,428.603,1121.555
09:00:00 30/07/1979,428.628,1122.338
09:00:00 31/07/1979,428.653,1123.122
09:00:00 01/08/1979,428.683,1124.062
09:00:00 02/08/1979,428.71,1124.925
09:00:00 03/08/1979,428.728,1125.474
09:00:00 04/08/1979,428.74,1125.866
09:00:00 05/08/1979,428.755,1126.337
09:00:00 06/08/1979,428.775,1126.965
09:00:00 07/08/1979,428.793,1127.515
09:00:00 08/08/1979,428.815,1128.222
09:00:00 09/08/1979,428.848,1129.244
09:00:00 10/08/1979,428.883,1130.345
09:00:00 11/08/1979,428.94,1132.156
09:00:00 12/08/1979,429.035,1135.151
09:00:00 13/08/1979,429.145,1138.624
09:00:00 14/08/1979,429.23,1141.312
09:00:00 15/08/1979,429.3,1143.529
09:00:00 16/08/1979,429.363,1145.51
09:00:00 17/08/1979,429.405,1146.859
09:00:00 18/08/1979,429.448,1148.208
09:00:00 19/08/1979,429.503,1149.956
09:00:00 20/08/1979,429.568,1152.023
09:00:00 21/08/1979,429.655,1154.809
09:00:00 22/08/1979,429.755,1157.999
09:00:00 23/08/1979,429.855,1161.194
09:00:00 24/08/1979,429.928,1163.513
09:00:00 25/08/1979,429.988,1165.435
09:00:00 26/08/1979,430.068,1168.0